sat.trackr.live / text

‹ back to catalog

ONEWEB-0195

NORAD 48240 · 2021-031AG

PAYLOAD ACTIVE UNKNOWN

§ Identity

Operator
Country
UK
Launch date
2021-04-25
Launch site
VOSTO
Launch vehicle
Mass (kg)
RCS (m²)

Purposes: comms

External: N2YO · Heavens-Above · Gunter

§ Orbital elements

Epoch: 2026-05-25T03:30:32.729760Z

Period
109.55 min
Inclination
87.8954°
Eccentricity
0.0001517
Mean motion
13.14504235 rev/d
Perigee alt
1,204.6 km
Apogee alt
1,206.9 km
Semi-major
7,583.9 km
B*
-4.8805e-4
RAAN
294.2917°
Arg perigee
107.3393°
Mean anomaly
252.7902°
Rev number
24,512

§ Raw data

ONEWEB-01951 48240U 21031AG  26145.14621215 -.00000168  00000+0 -48805-3 0  99992 48240  87.8954 294.2917 0001517 107.3393 252.7902 13.14504235245124

JSON: /api/v1/satellites/48240 · /tle

For live sub-satellite position, see the globe view (requires WebGL).

§ Visibility from observer

Set your observer location to see the next 7 days of passes ≥ 10°. The values pass through the URL so the page stays shareable.

No JS? Fill the form by hand. The geolocation button needs JavaScript.